CW0621 Weather Reports


time (UTC)temp
C
wind
direction
speed
KPH
gust
KPH
rain 1hr
cm
rain 24hr
cm
rain mn
cm
humidity
%
barometer
mb
20260509021529 10 212 0.0 0.0 0.00 0.00 0.00 91 1008.2
20260509020002 10 212 0.0 0.0 0.00 0.00 0.00 90 1008.0
20260509014528 11 212 0.0 0.0 0.00 0.00 0.00 88 1008.0
20260509013111 11 212 0.0 0.0 0.00 0.00 0.00 86 1007.9
20260509011527 12 176 0.0 0.0 0.00 0.00 0.00 85 1007.9
20260509010055 12 253 0.0 0.0 0.00 0.00 0.00 84 1007.8
20260509004530 12 248 0.0 0.0 0.00 0.00 0.00 81 1007.6
20260509003054 12 248 0.0 0.0 0.00 0.00 0.00 79 1007.6
20260509001521 13 248 0.0 0.0 0.00 0.00 0.00 77 1007.5
20260508234516 14 86 0.0 0.0 0.00 0.00 0.00 73 1007.4
20260508233046 14 72 0.0 0.0 0.00 0.00 0.00 72 1007.5
20260508231512 14 206 0.0 0.0 0.00 0.00 0.00 71 1007.7
20260508230041 15 67 0.0 0.0 0.00 0.00 0.00 70 1007.7
20260508224508 15 201 0.0 0.0 0.00 0.00 0.00 69 1007.8
20260508223038 15 240 0.0 0.0 0.00 0.00 0.00 66 1007.8
20260508221503 15 298 0.0 0.0 0.00 0.00 0.00 64 1007.7
20260508220038 15 269 0.0 0.0 0.00 0.00 0.00 63 1007.8
20260508214502 15 279 0.0 0.0 0.00 0.00 0.00 65 1007.8
20260508213044 15 141 0.0 0.0 0.00 0.00 0.00 63 1007.9
20260508211501 16 219 0.0 0.0 0.00 0.00 0.00 61 1008.0
20260508210034 16 321 0.0 0.0 0.00 0.00 0.00 62 1008.0
20260508204619 17 262 0.0 0.0 0.00 0.00 0.00 61 1008.1
20260508203029 17 340 0.0 0.0 0.00 0.00 0.00 60 1008.3
20260508201606 17 245 0.0 0.0 0.00 0.00 0.00 60 1008.5
20260508200014 16 22 0.0 0.0 0.00 0.00 0.00 64 1008.8
20260508194538 17 160 0.0 4.8 0.00 0.00 0.00 61 1009.0
20260508193103 17 132 0.0 0.0 0.00 0.00 0.00 59 1009.2
20260508191531 17 143 0.0 0.0 0.00 0.00 0.00 57 1009.4
20260508190103 17 162 0.0 0.0 0.00 0.00 0.00 57 1009.5
20260508184521 17 260 0.0 0.0 0.00 0.00 0.00 50 1009.8
20260508183052 17 129 0.0 0.0 0.00 0.00 0.00 56 1010.0
20260508181537 16 265 0.0 0.0 0.00 0.00 0.00 57 1010.1
20260508180050 16 124 0.0 0.0 0.00 0.00 0.00 56 1010.4
20260508174512 17 16 0.0 0.0 0.00 0.00 0.00 50 1010.6
20260508173031 16 164 0.0 0.0 0.00 0.00 0.00 54 1010.8
20260508171604 17 127 0.0 0.0 0.00 0.00 0.00 51 1011.0
20260508170025 16 259 0.0 0.0 0.00 0.00 0.00 53 1011.2
20260508164556 15 256 0.0 0.0 0.00 0.00 0.00 55 1011.4
20260508163016 15 264 0.0 0.0 0.00 0.00 0.00 61 1011.7
20260508161546 15 160 0.0 1.6 0.00 0.00 0.00 59 1011.8
20260508160011 13 246 0.0 0.0 0.00 0.00 0.00 68 1011.7
20260508154539 13 125 0.0 0.0 0.00 0.00 0.00 71 1011.6
20260508153100 13 147 0.0 0.0 0.00 0.00 0.00 75 1011.8
20260508151524 12 236 0.0 0.0 0.00 0.00 0.00 75 1012.0
20260508150049 12 259 0.0 0.0 0.00 0.00 0.00 78 1012.1
20260508144513 11 140 0.0 0.0 0.00 0.00 0.00 79 1012.2
20260508143042 11 251 0.0 0.0 0.00 0.00 0.00 80 1012.4
20260508141510 11 148 0.0 0.0 0.00 0.00 0.00 79 1012.2
20260508140034 11 181 0.0 0.0 0.00 0.00 0.00 81 1012.3
20260508134601 10 74 0.0 0.0 0.00 0.00 0.00 84 1012.2
20260508133026 10 110 0.0 0.0 0.00 0.00 0.00 86 1012.4
20260508131603 9 198 0.0 0.0 0.00 0.00 0.00 88 1012.3
20260508130018 8 137 0.0 0.0 0.00 0.00 0.00 90 1012.4
20260508124548 8 56 0.0 0.0 0.00 0.00 0.00 92 1012.5
20260508123015 7 101 0.0 0.0 0.00 0.00 0.00 94 1012.5
20260508121545 7 145 0.0 0.0 0.00 0.00 0.00 95 1012.4
20260508120011 6 188 0.0 0.0 0.00 0.00 0.00 96 1012.4
20260508114536 6 127 0.0 0.0 0.00 0.00 0.00 96 1012.3
20260508113004 5 212 0.0 0.0 0.00 0.00 0.00 96 1012.1
20260508111550 5 157 0.0 0.0 0.00 0.00 0.00 96 1012.0
20260508110005 5 157 0.0 0.0 0.00 0.00 0.00 96 1011.9
20260508104531 4 129 0.0 0.0 0.00 0.00 0.00 96 1011.9
20260508103135 4 83 0.0 0.0 0.00 0.00 0.00 95 1011.8
20260508101537 3 83 0.0 0.0 0.00 0.00 0.00 95 1011.7
20260508100054 4 83 0.0 0.0 0.00 0.00 0.00 95 1011.8
20260508094521 4 83 0.0 0.0 0.00 0.00 0.00 95 1011.8
20260508093051 4 82 0.0 0.0 0.00 0.00 0.00 95 1011.8
20260508091517 4 82 0.0 0.0 0.00 0.00 0.00 95 1011.7
20260508090104 4 82 0.0 0.0 0.00 0.00 0.00 95 1011.7
20260508084521 5 82 0.0 0.0 0.00 0.00 0.00 95 1011.7
20260508083112 4 82 0.0 0.0 0.00 0.00 0.00 95 1011.7
20260508081522 4 82 0.0 0.0 0.00 0.00 0.00 95 1011.8
20260508080053 4 82 0.0 0.0 0.00 0.00 0.00 94 1011.9
20260508074518 4 82 0.0 0.0 0.00 0.00 0.00 94 1011.9
20260508073046 4 82 0.0 0.0 0.00 0.00 0.00 94 1011.8
20260508071510 5 82 0.0 0.0 0.00 0.00 0.00 93 1011.9
20260508070039 5 82 0.0 0.0 0.00 0.00 0.00 93 1012.0
20260508064505 5 82 0.0 0.0 0.00 0.00 0.00 93 1012.0
20260508063034 5 82 0.0 0.0 0.00 0.00 0.00 93 1012.2
20260508061503 6 82 0.0 0.0 0.00 0.00 0.00 93 1012.2
20260508060031 6 82 0.0 0.0 0.00 0.00 0.00 93 1012.2
20260508054603 6 81 0.0 0.0 0.00 0.00 0.00 93 1012.3
20260508053028 5 81 0.0 0.0 0.00 0.00 0.00 92 1012.4
20260508051556 6 81 0.0 0.0 0.00 0.00 0.00 93 1012.3
20260508050024 5 75 0.0 0.0 0.00 0.00 0.00 93 1012.4
20260508044550 5 70 0.0 0.0 0.00 0.00 0.00 92 1012.3
20260508043015 5 70 0.0 0.0 0.00 0.00 0.00 92 1012.4
20260508041544 5 70 0.0 0.0 0.00 0.00 0.00 91 1012.4
20260508040017 5 147 0.0 0.0 0.00 0.00 0.00 89 1012.4
20260508034539 5 148 0.0 0.0 0.00 0.00 0.00 88 1012.2
20260508033001 5 147 0.0 0.0 0.00 0.00 0.00 86 1012.2
20260508031532 6 147 0.0 0.0 0.00 0.00 0.00 85 1012.3
20260508030113 7 147 0.0 0.0 0.00 0.00 0.00 83 1012.4
20260508024540 7 239 0.0 0.0 0.00 0.00 0.00 82 1012.6
20260508023054 7 171 0.0 0.0 0.00 0.00 0.00 81 1012.6